"startDT [UTC]","vpos","CH4 [ppm]","stdev(CH4) [ppm]","CO2 [ppm]","stdev(CO2) [ppm]","H2O_reported [%]","stdev(H2O_reported)","CavityPressure [torr]","CavityTemp [C]","OutletValve","CH4_dry [ppm]","CO2_dry [ppm]","DasTemp [C]","EtalonTemp [C]","WarmBoxTemp [C]","MPVPosition","T_ECpre [C]","T_EC1 [C]","T_EC2 [C]","p_inlet [hPa]","p_in [hPa]","p_out [hPa]","T_inlet [C]","RH_inlet [%]","dwpt_inlet [C]","T_vent [C]","RH_vent [%]","dwpt_vent [C]","flow_vent [l min-1]","flow_inlet [l min-1]","dwpt_sample [C]","T_room [C]"
2013-11-21 00:00:00,0.0,1.91108,0.00026,403.517,0.041,0.2434,0.0003,140.003,45.000,31579.56450,1.91570,404.698,32.131,45.059,45.000,0.00,0.11,-272.57,-272.64,-20,575,-2,21.7,7.0,-15.6,21.4,7.4,-15.3,5.73,2.51,-8.5,26.2
2013-11-21 00:01:00,0.0,1.91168,0.00025,403.565,0.027,0.2423,0.0014,139.995,45.000,31577.67416,1.91620,404.755,32.125,45.059,45.000,0.00,0.11,-272.58,-272.64,-20,575,-2,21.7,7.0,-15.6,21.4,7.3,-15.3,5.73,2.50,-8.5,26.3
2013-11-21 00:02:00,0.0,1.91186,0.00042,403.593,0.050,0.2424,0.0012,140.009,45.000,31580.72330,1.91630,404.767,32.125,45.059,45.000,0.00,0.11,-272.57,-272.64,-20,575,-2,21.7,7.0,-15.6,21.4,7.3,-15.3,5.73,2.53,-8.5,26.2
2013-11-21 00:03:00,0.0,1.91217,0.00040,403.545,0.000,0.2414,0.0003,140.003,45.000,31579.54876,1.91670,404.733,32.125,45.059,45.000,0.00,0.11,-272.57,-272.64,-20,575,-2,21.7,7.0,-15.6,21.4,7.4,-15.3,5.73,2.57,-8.5,26.2
2013-11-21 00:04:00,0.0,1.91273,0.00027,403.558,0.010,0.2448,0.0012,140.002,45.000,31581.21729,1.91728,404.749,32.125,45.059,45.000,0.00,0.11,-272.57,-272.64,-20,575,-2,21.7,7.0,-15.5,21.4,7.4,-15.2,5.73,2.59,-8.5,26.2
2013-11-21 00:05:00,0.0,1.91262,0.00049,403.566,0.000,0.2432,0.0005,139.997,45.000,31580.76027,1.91741,404.756,32.125,45.059,45.000,0.00,0.11,-272.57,-272.64,-20,575,-2,21.7,7.0,-15.5,21.4,7.4,-15.2,5.73,2.56,-8.5,26.2
2013-11-21 00:06:00,0.0,1.91238,0.00034,403.566,0.000,0.2458,0.0014,140.000,45.000,31580.45159,1.91699,404.762,32.132,45.059,45.000,0.00,0.11,-272.57,-272.64,-20,576,-2,21.7,7.0,-15.5,21.4,7.4,-15.2,5.73,2.52,-8.5,26.2
2013-11-21 00:07:00,0.0,1.91184,0.00075,403.527,0.042,0.2439,0.0012,140.005,45.000,31580.02510,1.91674,404.727,32.132,45.059,45.000,0.00,0.11,-272.57,-272.64,-20,576,-2,21.7,7.0,-15.5,21.4,7.4,-15.2,5.73,2.50,-8.5,26.1
2013-11-21 00:08:00,0.0,1.91049,0.00008,403.491,0.019,0.2453,0.0011,140.001,45.000,31579.70827,1.91514,404.687,32.125,45.059,45.000,0.00,0.11,-272.57,-272.64,-20,575,-2,21.7,7.0,-15.5,21.4,7.4,-15.2,5.73,2.51,-8.5,26.2
2013-11-21 00:09:00,0.0,1.91092,0.00023,403.424,0.006,0.2434,0.0016,140.001,45.000,31579.61938,1.91550,404.620,32.130,45.059,45.000,0.00,0.11,-272.57,-272.64,-20,575,-2,21.7,7.0,-15.6,21.4,7.4,-15.3,5.73,2.54,-8.5,26.3
2013-11-21 00:10:00,0.0,1.91118,0.00015,403.435,0.000,0.2415,0.0009,140.001,45.000,31579.10865,1.91569,404.615,32.133,45.059,45.000,0.00,0.11,-272.57,-272.63,-20,575,-2,21.7,7.0,-15.6,21.4,7.3,-15.3,5.73,2.58,-8.5,26.3
2013-11-21 00:11:00,0.0,1.91089,0.00028,403.461,0.022,0.2427,0.0019,140.004,45.000,31579.22292,1.91548,404.641,32.131,45.059,45.000,0.00,0.11,-272.58,-272.64,-20,576,-2,21.7,7.0,-15.6,21.4,7.3,-15.3,5.73,2.59,-8.5,26.3
2013-11-21 00:12:00,0.0,1.91102,0.00035,403.501,0.019,0.2447,0.0012,139.997,45.000,31577.84373,1.91559,404.692,32.125,45.059,45.000,0.00,0.11,-272.57,-272.64,-20,575,-2,21.7,7.0,-15.6,21.4,7.3,-15.3,5.73,2.53,-8.5,26.3
2013-11-21 00:13:00,0.0,1.91091,0.00045,403.509,0.011,0.2421,0.0028,139.997,45.000,31577.78001,1.91556,404.694,32.127,45.059,45.000,0.00,0.11,-272.57,-272.63,-20,575,-2,21.7,7.0,-15.6,21.4,7.3,-15.3,5.73,2.49,-8.5,26.3
2013-11-21 00:14:00,0.0,1.91124,0.00033,403.497,0.000,0.2415,0.0013,140.006,45.000,31580.44726,1.91578,404.678,32.125,45.059,45.000,0.00,0.11,-272.57,-272.64,-20,575,-2,21.7,7.0,-15.6,21.4,7.3,-15.3,5.73,2.51,-8.5,26.3
2013-11-21 00:15:00,0.0,1.91112,0.00025,403.497,0.000,0.2422,0.0017,139.999,45.000,31580.25907,1.91569,404.677,32.125,45.059,45.000,0.00,0.11,-272.57,-272.64,-20,576,-2,21.7,7.0,-15.6,21.4,7.3,-15.3,5.73,2.56,-8.5,26.3
2013-11-21 00:16:00,0.0,1.91069,0.00023,403.431,0.022,0.2432,0.0013,139.997,45.000,31583.04290,1.91538,404.625,32.125,45.059,45.000,0.00,0.11,-272.57,-272.64,-20,575,-2,21.7,7.0,-15.6,21.4,7.3,-15.3,5.73,2.58,-8.5,26.3
2013-11-21 00:17:00,0.0,1.91088,0.00048,403.417,0.013,0.2431,0.0011,140.002,45.000,31583.39202,1.91538,404.605,32.125,45.059,45.000,0.00,0.11,-272.57,-272.63,-20,575,-2,21.7,7.0,-15.6,21.4,7.3,-15.3,5.73,2.57,-8.5,26.3
2013-11-21 00:18:00,0.0,1.91152,0.00042,403.433,0.000,0.2425,0.0013,140.000,45.000,31582.19875,1.91620,404.616,32.123,45.059,45.000,0.00,0.11,-272.58,-272.64,-20,575,-2,21.7,7.0,-15.6,21.4,7.3,-15.3,5.73,2.52,-8.5,26.3
2013-11-21 00:19:00,0.0,1.91207,0.00068,403.363,0.015,0.2439,0.0014,139.995,45.000,31579.34031,1.91647,404.559,32.123,45.059,45.000,0.00,0.11,-272.57,-272.64,-20,575,-2,21.7,7.0,-15.6,21.4,7.3,-15.3,5.73,2.49,-8.5,26.3
2013-11-21 00:20:00,0.0,1.91236,0.00047,403.431,0.045,0.2426,0.0021,140.004,45.000,31578.44265,1.91696,404.606,32.122,45.059,45.000,0.00,0.11,-272.57,-272.63,-20,575,-2,21.7,7.0,-15.6,21.4,7.3,-15.3,5.73,2.51,-8.5,26.3
2013-11-21 00:21:00,0.0,1.91266,0.00038,403.456,0.023,0.2436,0.0021,140.007,45.000,31577.40120,1.91709,404.647,32.115,45.059,45.000,0.00,0.11,-272.58,-272.64,-20,575,-2,21.7,7.0,-15.6,21.4,7.3,-15.3,5.73,2.56,-8.5,26.3
2013-11-21 00:22:00,0.0,1.91251,0.00069,403.479,0.022,0.2434,0.0012,140.000,45.000,31577.85077,1.91749,404.664,32.108,45.059,45.000,0.00,0.11,-272.58,-272.64,-20,575,-2,21.7,7.0,-15.6,21.4,7.3,-15.3,5.73,2.59,-8.5,26.3
2013-11-21 00:23:00,0.0,1.91193,0.00045,403.482,0.010,0.2436,0.0019,140.002,45.000,31576.53099,1.91651,404.673,32.116,45.059,45.000,0.00,0.11,-272.57,-272.64,-20,575,-2,21.7,7.0,-15.6,21.4,7.3,-15.3,5.73,2.56,-8.5,26.2
2013-11-21 00:24:00,0.0,1.91127,0.00044,403.446,0.028,0.2432,0.0015,139.998,45.000,31574.48068,1.91596,404.638,32.125,45.059,45.000,0.00,0.11,-272.57,-272.64,-20,575,-3,21.7,7.0,-15.6,21.4,7.3,-15.3,5.73,2.52,-8.5,26.2
2013-11-21 00:25:00,0.0,1.91129,0.00031,403.418,0.031,0.2425,0.0011,139.994,45.000,31575.78330,1.91590,404.605,32.125,45.059,45.000,0.00,0.11,-272.57,-272.64,-20,575,-3,21.7,7.0,-15.6,21.4,7.3,-15.3,5.73,2.50,-8.5,26.3
2013-11-21 00:26:00,0.0,1.91174,0.00054,403.366,0.014,0.2427,0.0018,140.004,45.000,31576.73028,1.91630,404.553,32.125,45.059,45.000,0.00,0.11,-272.57,-272.63,-20,575,-2,21.7,7.0,-15.7,21.4,7.3,-15.3,5.73,2.51,-8.5,26.3
2013-11-21 00:27:00,0.0,1.91177,0.00044,403.344,0.000,0.2416,0.0007,140.003,45.000,31574.31446,1.91640,404.524,32.132,45.059,45.000,0.00,0.11,-272.57,-272.63,-20,575,-2,21.7,7.0,-15.7,21.4,7.3,-15.3,5.73,2.54,-8.5,26.3
2013-11-21 00:28:00,0.0,1.91148,0.00054,403.344,0.000,0.2432,0.0018,139.995,45.000,31572.58169,1.91614,404.529,32.128,45.059,45.000,0.00,0.11,-272.58,-272.64,-20,575,-2,21.7,7.0,-15.7,21.4,7.3,-15.3,5.73,2.58,-8.5,26.3
2013-11-21 00:29:00,0.0,1.91150,0.00041,403.344,0.000,0.2420,0.0021,140.000,45.000,31574.16398,1.91587,404.526,32.128,45.059,45.000,0.00,0.11,-272.57,-272.64,-20,576,-2,21.7,7.0,-15.7,21.4,7.3,-15.3,5.73,2.58,-8.5,26.3
2013-11-21 00:30:00,0.0,1.91231,0.00035,403.367,0.028,0.2422,0.0011,140.000,45.000,31577.23058,1.91689,404.544,32.125,45.059,45.000,0.00,0.11,-272.57,-272.63,-20,575,-2,21.7,7.0,-15.7,21.4,7.3,-15.3,5.73,2.55,-8.5,26.3
2013-11-21 00:31:00,0.0,1.91276,0.00038,403.401,0.000,0.2413,0.0011,140.002,45.000,31576.53171,1.91715,404.579,32.125,45.059,45.000,0.00,0.11,-272.58,-272.64,-20,575,-2,21.7,7.0,-15.7,21.4,7.3,-15.3,5.73,2.51,-8.5,26.3
2013-11-21 00:32:00,0.0,1.91203,0.00046,403.421,0.028,0.2433,0.0005,140.004,45.000,31578.27570,1.91691,404.601,32.125,45.059,45.000,0.00,0.11,-272.57,-272.64,-20,575,-2,21.7,7.0,-15.7,21.4,7.3,-15.3,5.73,2.50,-8.5,26.3
2013-11-21 00:33:00,0.0,1.91196,0.00016,403.423,0.041,0.2424,0.0008,140.013,45.000,31581.76483,1.91648,404.614,32.125,45.059,45.000,0.00,0.11,-272.57,-272.64,-20,575,-2,21.7,7.0,-15.7,21.4,7.3,-15.3,5.73,2.51,-8.5,26.3
2013-11-21 00:34:00,0.0,1.91171,0.00029,403.420,0.048,0.2418,0.0008,139.999,45.000,31578.48762,1.91637,404.602,32.133,45.059,45.000,0.00,0.11,-272.57,-272.64,-20,576,-2,21.7,7.0,-15.7,21.4,7.3,-15.3,5.73,2.56,-8.5,26.3
2013-11-21 00:35:00,0.0,1.91150,0.00031,403.364,0.000,0.2412,0.0018,140.011,45.000,31582.61073,1.91614,404.540,32.135,45.059,45.000,0.00,0.11,-272.58,-272.64,-20,575,-2,21.8,7.0,-15.6,21.4,7.3,-15.3,5.73,2.58,-8.5,26.3
2013-11-21 00:36:00,0.0,1.91096,0.00030,403.412,0.023,0.2415,0.0012,139.999,45.000,31579.67330,1.91550,404.586,32.166,45.059,45.000,0.00,0.11,-272.58,-272.63,-20,575,-2,21.8,7.0,-15.6,21.4,7.3,-15.3,5.73,2.57,-8.5,26.3
2013-11-21 00:37:00,0.0,1.91099,0.00048,403.394,0.039,0.2442,0.0017,139.997,45.000,31580.31933,1.91568,404.594,32.175,45.059,45.000,0.00,0.11,-272.57,-272.64,-20,575,-3,21.7,7.0,-15.6,21.4,7.3,-15.3,5.73,2.53,-8.5,26.3
2013-11-21 00:38:00,0.0,1.91078,0.00018,403.365,0.031,0.2425,0.0009,140.003,45.000,31582.77362,1.91538,404.551,32.182,45.059,45.000,0.00,0.11,-272.58,-272.64,-20,576,-2,21.8,7.0,-15.6,21.4,7.3,-15.3,5.73,2.50,-8.5,26.4
2013-11-21 00:39:00,0.0,1.91107,0.00024,403.318,0.000,0.2429,0.0026,139.999,45.000,31579.78644,1.91564,404.503,32.188,45.059,45.000,0.00,0.11,-272.57,-272.64,-20,576,-3,21.8,7.0,-15.6,21.4,7.3,-15.2,5.73,2.50,-8.5,26.4
2013-11-21 00:40:00,0.0,1.91130,0.00027,403.361,0.028,0.2434,0.0012,140.011,45.000,31584.67125,1.91587,404.541,32.179,45.059,45.000,0.00,0.11,-272.57,-272.63,-20,575,-3,21.8,7.0,-15.6,21.4,7.3,-15.3,5.73,2.54,-8.5,26.4
2013-11-21 00:41:00,0.0,1.91115,0.00030,403.381,0.028,0.2431,0.0013,140.001,45.000,31581.40048,1.91581,404.567,32.188,45.059,45.000,0.00,0.11,-272.57,-272.64,-20,575,-3,21.8,7.0,-15.6,21.4,7.3,-15.3,5.73,2.58,-8.5,26.4
2013-11-21 00:42:00,0.0,1.91098,0.00037,403.381,0.008,0.2429,0.0020,140.003,45.000,31581.18259,1.91550,404.567,32.188,45.059,45.000,0.00,0.11,-272.58,-272.64,-20,575,-3,21.8,7.0,-15.6,21.4,7.3,-15.3,5.73,2.58,-8.5,26.4
2013-11-21 00:43:00,0.0,1.91134,0.00018,403.384,0.007,0.2435,0.0015,139.997,45.000,31581.19612,1.91595,404.573,32.188,45.059,45.000,0.00,0.11,-272.57,-272.63,-20,576,-3,21.8,7.0,-15.6,21.4,7.3,-15.3,5.73,2.53,-8.5,26.4
2013-11-21 00:44:00,0.0,1.91105,0.00027,403.359,0.023,0.2429,0.0019,140.005,45.000,31585.54205,1.91571,404.549,32.188,45.059,45.000,0.00,0.11,-272.57,-272.64,-20,575,-3,21.8,7.0,-15.6,21.5,7.3,-15.3,5.73,2.49,-8.5,26.5
2013-11-21 00:45:00,0.0,1.91090,0.00005,403.343,0.008,0.2438,0.0012,139.997,45.000,31581.33207,1.91551,404.530,32.188,45.059,45.000,0.00,0.11,-272.57,-272.64,-20,575,-3,21.8,7.0,-15.6,21.5,7.3,-15.2,5.73,2.51,-8.5,26.4
2013-11-21 00:46:00,0.0,1.91105,0.00048,403.335,0.008,0.2436,0.0021,139.997,45.000,31583.36376,1.91555,404.526,32.188,45.059,45.000,0.00,0.11,-272.57,-272.64,-20,575,-3,21.8,7.0,-15.6,21.5,7.3,-15.2,5.73,2.55,-8.5,26.4
2013-11-21 00:47:00,0.0,1.91093,0.00031,403.363,0.011,0.2429,0.0012,140.003,45.000,31585.04969,1.91554,404.547,32.188,45.059,45.000,0.00,0.11,-272.57,-272.64,-20,576,-3,21.8,7.0,-15.6,21.5,7.3,-15.2,5.73,2.58,-8.5,26.4
2013-11-21 00:48:00,0.0,1.91108,0.00047,403.390,0.011,0.2447,0.0025,140.005,45.000,31584.14115,1.91582,404.581,32.188,45.059,45.000,0.00,0.11,-272.58,-272.64,-20,576,-3,21.8,7.0,-15.6,21.5,7.3,-15.2,5.73,2.57,-8.5,26.4
2013-11-21 00:49:00,0.0,1.91105,0.00047,403.378,0.000,0.2429,0.0017,140.002,45.000,31584.30724,1.91558,404.568,32.188,45.059,45.000,0.00,0.11,-272.57,-272.64,-20,575,-3,21.8,7.0,-15.6,21.5,7.3,-15.2,5.73,2.53,-8.5,26.4
2013-11-21 00:50:00,0.0,1.91083,0.00021,403.396,0.000,0.2431,0.0013,140.006,45.000,31587.22353,1.91541,404.580,32.200,45.059,45.000,0.00,0.11,-272.57,-272.63,-20,575,-3,21.8,7.0,-15.6,21.5,7.3,-15.2,5.73,2.50,-8.5,26.4
2013-11-21 00:51:00,0.0,1.91098,0.00037,403.429,0.011,0.2440,0.0012,140.004,45.000,31583.01150,1.91556,404.616,32.206,45.059,45.000,0.00,0.11,-272.57,-272.64,-20,576,-3,21.8,7.0,-15.6,21.5,7.3,-15.3,5.73,2.51,-8.5,26.4
2013-11-21 00:52:00,0.0,1.91101,0.00045,403.429,0.002,0.2433,0.0015,139.997,45.000,31582.15823,1.91560,404.619,32.215,45.059,45.000,0.00,0.11,-272.58,-272.64,-20,576,-3,21.8,7.0,-15.6,21.5,7.3,-15.2,5.73,2.54,-8.5,26.4
2013-11-21 00:53:00,0.0,1.91124,0.00056,403.437,0.011,0.2423,0.0012,139.996,45.000,31581.32873,1.91587,404.618,32.225,45.059,45.000,0.00,0.11,-272.57,-272.64,-20,576,-3,21.8,7.0,-15.6,21.5,7.3,-15.3,5.73,2.57,-8.4,26.5
2013-11-21 00:54:00,0.0,1.91089,0.00031,403.420,0.024,0.2434,0.0010,139.999,45.000,31583.48183,1.91552,404.613,32.235,45.059,45.000,0.00,0.11,-272.57,-272.63,-20,575,-3,21.8,7.0,-15.6,21.5,7.3,-15.2,5.73,2.58,-8.4,26.4
2013-11-21 00:55:00,0.0,1.91073,0.00026,403.395,0.000,0.2424,0.0017,139.995,45.000,31584.26711,1.91539,404.578,32.228,45.059,45.000,0.00,0.11,-272.58,-272.64,-20,575,-3,21.8,7.0,-15.6,21.5,7.3,-15.2,5.73,2.55,-8.4,26.5
2013-11-21 00:56:00,0.0,1.91089,0.00035,403.443,0.043,0.2438,0.0019,140.006,45.000,31586.42249,1.91543,404.624,32.248,45.059,45.000,0.00,0.11,-272.57,-272.63,-20,576,-3,21.8,7.0,-15.6,21.5,7.3,-15.3,5.73,2.51,-8.4,26.5
2013-11-21 00:57:00,0.0,1.91096,0.00021,403.432,0.022,0.2424,0.0017,139.998,45.000,31583.45737,1.91552,404.620,32.250,45.059,45.000,0.00,0.12,-272.57,-272.63,-20,576,-3,21.8,7.0,-15.6,21.5,7.3,-15.3,5.73,2.49,-8.4,26.5
2013-11-21 00:58:00,0.0,1.91096,0.00037,403.399,0.023,0.2435,0.0020,140.001,45.000,31585.04830,1.91568,404.591,32.242,45.059,45.000,0.00,0.11,-272.57,-272.64,-20,576,-3,21.9,7.0,-15.5,21.5,7.3,-15.3,5.73,2.52,-8.4,26.5
2013-11-21 00:59:00,0.0,1.91095,0.00025,403.393,0.035,0.2431,0.0021,140.009,45.000,31588.57314,1.91547,404.572,32.242,45.059,45.000,0.00,0.11,-272.57,-272.64,-20,575,-3,21.9,7.0,-15.6,21.5,7.3,-15.2,5.73,2.56,-8.4,26.5
2013-11-21 01:00:00,0.0,1.91091,0.00019,403.354,0.027,0.2438,0.0011,140.002,45.000,31587.58849,1.91545,404.555,32.245,45.059,45.000,0.00,0.11,-272.57,-272.63,-20,576,-3,21.9,7.0,-15.5,21.5,7.3,-15.2,5.73,2.58,-8.4,26.5
2013-11-21 01:01:00,0.0,1.91099,0.00022,403.321,0.000,0.2456,0.0015,139.995,45.000,31586.30036,1.91567,404.518,32.234,45.059,45.000,0.00,0.11,-272.57,-272.64,-20,576,-3,21.9,7.0,-15.5,21.6,7.3,-15.2,5.73,2.56,-8.4,26.5
2013-11-21 01:02:00,0.0,1.91143,0.00016,403.416,0.045,0.2448,0.0010,140.003,45.000,31587.51647,1.91603,404.599,32.241,45.059,45.000,0.00,0.11,-272.57,-272.64,-20,576,-3,21.9,7.0,-15.5,21.6,7.3,-15.2,5.73,2.51,-8.4,26.5
2013-11-21 01:03:00,0.0,1.91112,0.00022,403.408,0.013,0.2457,0.0025,140.003,45.000,31589.60880,1.91579,404.609,32.246,45.059,45.000,0.00,0.12,-272.57,-272.63,-20,576,-3,21.9,7.0,-15.5,21.6,7.3,-15.2,5.73,2.49,-8.4,26.5
2013-11-21 01:04:00,0.0,1.91133,0.00051,403.368,0.019,0.2441,0.0015,139.999,45.000,31589.62201,1.91581,404.565,32.248,45.059,45.000,0.00,0.11,-272.57,-272.63,-20,576,-3,21.9,7.0,-15.5,21.6,7.3,-15.2,5.73,2.52,-8.4,26.6
2013-11-21 01:05:00,0.0,1.91153,0.00035,403.356,0.000,0.2451,0.0015,139.999,45.000,31590.95676,1.91611,404.551,32.238,45.059,45.000,0.00,0.11,-272.57,-272.64,-20,576,-3,21.9,7.0,-15.5,21.6,7.3,-15.2,5.73,2.57,-8.4,26.5
2013-11-21 01:06:00,0.0,1.91124,0.00036,403.350,0.002,0.2462,0.0014,139.998,45.000,31591.10251,1.91612,404.554,32.245,45.059,45.000,0.00,0.11,-272.57,-272.63,-20,576,-3,21.9,7.0,-15.5,21.6,7.3,-15.2,5.73,2.59,-8.4,26.6
2013-11-21 01:07:00,0.0,1.91125,0.00032,403.333,0.012,0.2445,0.0012,140.002,45.000,31591.97264,1.91592,404.528,32.228,45.059,45.000,0.00,0.12,-272.57,-272.63,-20,576,-3,21.9,7.0,-15.5,21.6,7.3,-15.2,5.73,2.56,-8.4,26.6
2013-11-21 01:08:00,0.0,1.91098,0.00023,403.357,0.000,0.2442,0.0022,139.999,45.000,31590.27773,1.91561,404.548,32.233,45.059,45.000,0.00,0.11,-272.57,-272.63,-20,576,-3,21.9,7.0,-15.5,21.6,7.3,-15.2,5.73,2.51,-8.4,26.5
2013-11-21 01:09:00,0.0,1.91084,0.00021,403.391,0.011,0.2458,0.0009,140.007,45.000,31594.06336,1.91546,404.585,32.221,45.059,45.000,0.00,0.11,-272.57,-272.64,-20,576,-3,21.9,7.0,-15.5,21.6,7.3,-15.2,5.73,2.49,-8.4,26.6
2013-11-21 01:10:00,0.0,1.91099,0.00034,403.353,0.020,0.2451,0.0004,140.006,45.000,31592.11461,1.91571,404.554,32.210,45.059,45.000,0.00,0.11,-272.57,-272.63,-20,576,-3,21.9,7.0,-15.5,21.6,7.3,-15.2,5.73,2.53,-8.4,26.6
2013-11-21 01:11:00,0.0,1.91082,0.00031,403.342,0.006,0.2445,0.0011,139.999,45.000,31591.39373,1.91536,404.534,32.200,45.059,45.000,0.00,0.11,-272.57,-272.63,-20,576,-3,21.9,7.0,-15.5,21.6,7.3,-15.2,5.73,2.58,-8.4,26.6
2013-11-21 01:12:00,0.0,1.91091,0.00065,403.351,0.000,0.2468,0.0021,139.998,45.000,31592.12827,1.91539,404.553,32.191,45.059,45.000,0.00,0.11,-272.57,-272.64,-20,576,-3,21.9,7.0,-15.5,21.6,7.3,-15.2,5.73,2.58,-8.4,26.6
2013-11-21 01:13:00,0.0,1.91138,0.00023,403.300,0.000,0.2463,0.0019,140.006,45.000,31593.02326,1.91609,404.510,32.188,45.059,45.000,0.00,0.11,-272.57,-272.63,-20,576,-3,21.9,7.0,-15.5,21.6,7.3,-15.2,5.73,2.53,-8.4,26.6
2013-11-21 01:14:00,0.0,1.91121,0.00037,403.300,0.000,0.2445,0.0020,140.005,45.000,31593.98247,1.91599,404.495,32.188,45.059,45.000,0.00,0.12,-272.57,-272.63,-20,576,-3,21.9,7.0,-15.5,21.6,7.3,-15.2,5.73,2.49,-8.4,26.6
2013-11-21 01:15:00,0.0,1.91086,0.00036,403.354,0.029,0.2433,0.0017,140.010,45.000,31594.45190,1.91557,404.537,32.188,45.059,45.000,0.00,0.11,-272.57,-272.64,-20,576,-3,21.9,7.0,-15.5,21.6,7.3,-15.2,5.73,2.50,-8.4,26.6
2013-11-21 01:16:00,0.0,1.91088,0.00034,403.369,0.000,0.2448,0.0015,139.999,45.000,31593.91374,1.91538,404.563,32.188,45.059,45.000,0.00,0.11,-272.57,-272.64,-20,576,-3,21.9,7.0,-15.5,21.6,7.3,-15.2,5.73,2.55,-8.4,26.5
2013-11-21 01:17:00,0.0,1.91113,0.00043,403.317,0.024,0.2458,0.0020,139.999,45.000,31592.99375,1.91578,404.518,32.188,45.059,45.000,0.00,0.12,-272.57,-272.63,-20,576,-3,21.9,7.0,-15.5,21.6,7.3,-15.2,5.73,2.59,-8.4,26.5
2013-11-21 01:18:00,0.0,1.91058,0.00021,403.326,0.000,0.2439,0.0005,140.003,45.000,31594.35105,1.91526,404.521,32.188,45.059,45.000,0.00,0.11,-272.57,-272.64,-20,576,-3,21.9,7.0,-15.5,21.6,7.3,-15.2,5.73,2.56,-8.4,26.6
2013-11-21 01:19:00,0.0,1.91062,0.00017,403.313,0.000,0.2448,0.0019,140.007,45.000,31594.77753,1.91526,404.509,32.190,45.059,45.000,0.00,0.11,-272.57,-272.63,-20,576,-3,21.9,7.0,-15.5,21.6,7.3,-15.2,5.73,2.52,-8.4,26.6
2013-11-21 01:20:00,0.0,1.91083,0.00038,403.336,0.012,0.2440,0.0019,139.991,45.000,31590.50374,1.91529,404.524,32.228,45.059,45.000,0.00,0.12,-272.57,-272.63,-20,576,-3,21.9,7.0,-15.5,21.6,7.3,-15.2,5.73,2.49,-8.4,26.6
2013-11-21 01:21:00,0.0,1.91138,0.00031,403.363,0.010,0.2429,0.0016,140.001,45.000,31590.70642,1.91596,404.548,32.229,45.059,45.000,0.00,0.11,-272.57,-272.63,-20,576,-3,21.9,7.0,-15.5,21.6,7.3,-15.2,5.73,2.50,-8.4,26.6
2013-11-21 01:22:00,0.0,1.91098,0.00049,403.368,0.000,0.2435,0.0021,140.000,45.000,31591.46552,1.91566,404.554,32.229,45.059,45.000,0.00,0.11,-272.57,-272.64,-20,576,-3,21.9,7.0,-15.5,21.6,7.3,-15.2,5.73,2.55,-8.4,26.6
2013-11-21 01:23:00,0.0,1.91119,0.00020,403.419,0.031,0.2460,0.0008,139.991,45.000,31588.03016,1.91580,404.611,32.234,45.059,45.000,0.00,0.12,-272.57,-272.63,-20,576,-3,22.0,7.0,-15.5,21.6,7.3,-15.2,5.73,2.59,-8.4,26.6
2013-11-21 01:24:00,0.0,1.91109,0.00048,403.421,0.028,0.2462,0.0014,140.001,45.000,31592.80215,1.91588,404.629,32.218,45.059,45.000,0.00,0.12,-272.57,-272.63,-20,576,-3,22.0,7.0,-15.5,21.6,7.3,-15.2,5.73,2.57,-8.4,26.6
2013-11-21 01:25:00,0.0,1.91046,0.00025,403.367,0.013,0.2450,0.0007,139.998,45.000,31591.03452,1.91507,404.567,32.221,45.059,45.000,0.00,0.11,-272.57,-272.64,-20,576,-3,22.0,7.0,-15.5,21.6,7.3,-15.2,5.73,2.51,-8.4,26.6
2013-11-21 01:26:00,0.0,1.91054,0.00022,403.350,0.008,0.2465,0.0010,140.006,45.000,31594.78283,1.91521,404.553,32.229,45.059,45.000,0.00,0.11,-272.57,-272.63,-20,576,-3,22.0,7.0,-15.5,21.7,7.3,-15.1,5.73,2.49,-8.4,26.6
2013-11-21 01:27:00,0.0,1.91081,0.00014,403.310,0.036,0.2450,0.0032,140.003,45.000,31593.98652,1.91540,404.507,32.211,45.059,45.000,0.00,0.12,-272.57,-272.63,-20,576,-3,22.0,7.0,-15.5,21.6,7.3,-15.1,5.73,2.51,-8.4,26.6
2013-11-21 01:28:00,0.0,1.91123,0.00030,403.324,0.007,0.2437,0.0008,140.006,45.000,31593.86872,1.91580,404.516,32.237,45.059,45.000,0.00,0.12,-272.57,-272.64,-21,576,-3,22.0,7.0,-15.5,21.7,7.3,-15.2,5.73,2.55,-8.4,26.6
2013-11-21 01:29:00,0.0,1.91088,0.00030,403.337,0.004,0.2435,0.0016,140.004,45.000,31593.24960,1.91548,404.524,32.212,45.059,45.000,0.00,0.12,-272.57,-272.64,-20,576,-3,22.0,6.9,-15.5,21.7,7.3,-15.2,5.73,2.59,-8.4,26.6
2013-11-21 01:30:00,0.0,1.91089,0.00027,403.338,0.000,0.2429,0.0007,140.001,45.000,31591.88891,1.91551,404.524,32.231,45.059,45.000,0.00,0.12,-272.57,-272.63,-20,576,-3,22.0,6.9,-15.5,21.7,7.3,-15.2,5.73,2.56,-8.4,26.6
2013-11-21 01:31:00,0.0,1.91059,0.00037,403.369,0.024,0.2436,0.0012,140.000,45.000,31593.20048,1.91533,404.553,32.208,45.059,45.000,0.00,0.12,-272.57,-272.63,-20,576,-3,22.0,6.9,-15.5,21.7,7.3,-15.2,5.73,2.51,-8.4,26.6
2013-11-21 01:32:00,0.0,1.91068,0.00026,403.350,0.041,0.2450,0.0016,139.998,45.000,31592.35965,1.91522,404.553,32.205,45.059,45.000,0.00,0.11,-272.57,-272.64,-20,576,-3,22.0,6.9,-15.5,21.7,7.3,-15.2,5.73,2.49,-8.4,26.6
2013-11-21 01:33:00,0.0,1.91068,0.00019,403.342,0.020,0.2451,0.0009,140.001,45.000,31592.52736,1.91540,404.533,32.201,45.059,45.000,0.00,0.12,-272.57,-272.64,-20,576,-3,22.0,6.9,-15.5,21.7,7.3,-15.2,5.73,2.52,-8.4,26.6
2013-11-21 01:34:00,0.0,1.91066,0.00031,403.324,0.020,0.2441,0.0013,140.001,45.000,31592.74207,1.91528,404.517,32.216,45.059,45.000,0.00,0.12,-272.57,-272.63,-20,576,-3,22.0,6.9,-15.5,21.7,7.3,-15.2,5.73,2.57,-8.4,26.6
2013-11-21 01:35:00,0.0,1.91031,0.00038,403.342,0.000,0.2435,0.0018,140.008,45.000,31593.73055,1.91502,404.531,32.206,45.059,45.000,0.00,0.11,-272.57,-272.63,-20,576,-3,22.0,6.9,-15.5,21.7,7.3,-15.2,5.73,2.59,-8.3,26.6
2013-11-21 01:36:00,0.0,1.91090,0.00044,403.381,0.029,0.2439,0.0014,140.010,45.000,31592.67893,1.91524,404.565,32.229,45.059,45.000,0.00,0.11,-272.57,-272.63,-20,576,-3,22.0,6.9,-15.5,21.7,7.3,-15.2,5.73,2.55,-8.4,26.6
2013-11-21 01:37:00,0.0,1.91082,0.00043,403.403,0.000,0.2442,0.0010,140.006,45.000,31592.67328,1.91565,404.594,32.202,45.059,45.000,0.00,0.12,-272.57,-272.63,-21,576,-3,22.0,6.9,-15.5,21.7,7.2,-15.2,5.73,2.49,-8.4,26.6
2013-11-21 01:38:00,0.0,1.91066,0.00019,403.334,0.023,0.2440,0.0014,140.005,45.000,31593.53261,1.91532,404.533,32.202,45.059,45.000,0.00,0.11,-272.57,-272.64,-20,576,-3,22.0,6.9,-15.5,21.7,7.2,-15.2,5.73,2.49,-8.3,26.6
2013-11-21 01:39:00,0.0,1.91038,0.00016,403.343,0.026,0.2456,0.0014,140.003,45.000,31594.68546,1.91504,404.542,32.190,45.059,45.000,0.00,0.12,-272.57,-272.64,-20,576,-3,22.0,6.9,-15.5,21.7,7.2,-15.2,5.73,2.54,-8.3,26.6
2013-11-21 01:40:00,0.0,1.91066,0.00023,403.305,0.000,0.2431,0.0013,140.001,45.000,31592.58009,1.91514,404.493,32.207,45.059,45.000,0.00,0.12,-272.57,-272.63,-20,576,-3,22.0,6.9,-15.6,21.7,7.3,-15.2,5.73,2.58,-8.3,26.6
2013-11-21 01:41:00,0.0,1.91053,0.00038,403.307,0.003,0.2424,0.0019,140.001,45.000,31591.67582,1.91521,404.491,32.236,45.059,45.000,0.00,0.11,-272.57,-272.63,-20,576,-3,22.0,6.9,-15.6,21.7,7.3,-15.2,5.73,2.58,-8.3,26.6
2013-11-21 01:42:00,0.0,1.91050,0.00045,403.311,0.000,0.2442,0.0020,139.997,45.000,31592.37508,1.91516,404.500,32.250,45.059,45.000,0.00,0.11,-272.57,-272.64,-20,576,-3,22.0,6.9,-15.6,21.7,7.2,-15.2,5.73,2.54,-8.3,26.6
2013-11-21 01:43:00,0.0,1.91076,0.00021,403.311,0.000,0.2442,0.0020,140.003,45.000,31590.81660,1.91536,404.505,32.227,45.059,45.000,0.00,0.12,-272.57,-272.64,-20,576,-3,22.0,6.9,-15.6,21.7,7.2,-15.2,5.73,2.51,-8.3,26.6
2013-11-21 01:44:00,0.0,1.91055,0.00016,403.279,0.036,0.2442,0.0017,140.001,45.000,31591.90810,1.91515,404.475,32.223,45.059,45.000,0.00,0.12,-272.57,-272.63,-20,576,-3,22.0,6.9,-15.6,21.7,7.2,-15.2,5.73,2.49,-8.3,26.6
2013-11-21 01:45:00,0.0,1.91064,0.00027,403.239,0.000,0.2424,0.0020,140.008,45.000,31592.19597,1.91512,404.423,32.234,45.059,45.000,0.00,0.11,-272.57,-272.64,-20,576,-3,22.0,6.9,-15.6,21.7,7.2,-15.3,5.73,2.52,-8.3,26.6
2013-11-21 01:46:00,0.0,1.91082,0.00021,403.239,0.000,0.2426,0.0008,139.999,45.000,31590.94600,1.91539,404.425,32.223,45.059,45.000,0.00,0.11,-272.57,-272.64,-21,576,-3,22.0,6.9,-15.6,21.7,7.2,-15.2,5.73,2.56,-8.3,26.6